Location: Campillo
(40.8621°N, 4.2488°W)
Time: 12:24:07
(UTC+00:00)

Cosmos 1869 Rocket - Pass Details

Date: 11 May 2021
Orbit: 604 x 633 km, 82.5° (Epoch: 14 June)

Event Time Altitude Azimuth Distance (km) Brightness Sun altitude
Rises 22:10:03 0° 354° (N) 2,868 8.0 -24.4°
Reaches altitude 10° 22:12:17 10° 356° (N) 1,960 6.9 -24.7°
Enters shadow 22:16:06 65° 28° (NNE) 669 3.7 -25.0°
